Wind_Speed
9 9 7 6 7 6 6 7 7 7 10 8 7 8 10 12 13 14 16 16 16 16 16 16 16 17 16 16 16 14 14 11 9 7 6 5 5 4 4 5 6 6 6 7
11 9 9 8 9 9 8 6 6 6 10 8 7 7 10 12 15 15 16 17 16 15 16 15 16 16 17 17 16 15 13 11 9 7 6 5 5 5 4 5 6 6 6 7
13 11 11 11 10 10 8 7 8 8 8 7 8 10 13 13 13 15 15 17 16 16 16 16 16 17 17 17 16 15 12 10 6 6 5 5 4 4 4 5 6 6 6 7
15 14 14 13 11 10 8 8 9 8 7 7 6 10 15 16 15 14 15 16 18 17 16 16 17 17 16 17 16 13 11 8 4 4 5 4 4 5 5 5 6 6 7 7
17 17 15 14 12 12 10 10 10 8 7 7 6 7 13 15 15 15 17 16 18 17 16 16 16 16 16 16 14 11 10 6 4 2 3 4 4 5 5 5 6 7 7 7
18 18 16 15 14 13 12 11 9 7 7 9 6 6 10 14 16 16 18 17 17 17 16 15 15 15 15 15 13 11 9 6 4 3 3 4 4 5 5 5 6 7 7 7
19 18 18 17 15 14 12 10 8 7 9 9 6 8 12 16 17 17 18 17 15 15 15 15 15 15 15 15 13 11 9 6 5 4 3 3 4 5 5 6 7 7 8 8
20 19 19 18 16 15 13 12 9 7 8 9 9 9 13 16 17 16 16 16 15 15 15 14 14 14 14 14 13 11 9 7 5 4 4 4 5 5 5 6 7 7 8 9
15 17 19 19 17 16 15 13 11 12 11 11 12 12 16 18 15 15 15 15 15 15 13 13 13 14 14 13 11 10 8 7 6 6 5 4 4 5 5 5 6 7 7 8
19 17 18 20 19 17 16 15 14 14 14 13 12 13 16 16 15 16 16 15 15 14 13 14 13 13 13 12 10 9 9 8 8 6 5 4 5 5 5 5 6 7 8 8
24 21 18 21 20 17 17 17 16 16 15 12 13 16 16 17 17 17 16 15 14 14 14 14 13 13 13 11 10 10 10 9 9 7 6 6 6 6 6 7 7 8 9 9
26 24 21 21 21 18 18 18 18 18 17 15 14 16 17 16 17 17 16 15 15 14 14 14 14 13 12 11 11 11 11 10 10 9 8 7 7 7 7 8 9 9 10 11
27 27 24 20 19 19 19 18 18 18 17 15 14 18 19 16 16 16 17 16 15 14 14 14 14 13 12 12 12 12 11 11 11 10 9 9 9 9 10 10 10 11 12 13
28 28 26 21 18 17 18 17 18 19 18 17 16 18 21 18 17 18 18 18 16 14 14 14 14 14 13 13 13 12 12 12 12 11 10 10 10 10 11 12 12 13 14 15
30 29 28 25 22 16 16 17 18 20 20 18 17 19 22 20 20 20 18 18 17 16 16 15 14 14 14 14 14 14 14 14 13 12 11 11 12 12 13 13 13 15 15 16
31 30 29 28 25 22 19 18 18 18 19 20 19 21 21 22 22 21 20 19 17 17 17 16 16 15 15 15 15 14 15 14 14 14 13 13 13 13 13 14 14 15 15 15
30 29 29 28 26 25 23 21 19 18 19 20 21 24 24 24 25 22 20 20 19 18 18 18 17 17 17 17 17 16 15 15 15 15 15 15 15 14 14 15 15 16 16 15
30 29 28 26 25 24 22 21 21 21 21 21 23 25 25 26 27 24 22 22 21 20 19 19 18 17 17 17 18 17 17 17 16 17 16 16 15 16 16 17 17 17 17 17
30 30 29 27 25 22 21 22 22 22 24 24 24 26 27 28 26 25 24 23 22 21 20 20 19 19 18 18 19 18 17 18 18 17 18 18 18 18 19 19 19 19 20 20
31 31 30 29 26 22 22 24 23 23 26 28 27 28 28 26 25 25 24 23 22 22 22 21 21 21 20 19 19 19 19 20 20 20 20 20 20 20 21 21 21 22 23 22
32 32 31 30 29 27 27 26 25 26 28 28 28 27 28 27 26 26 25 25 24 24 24 24 24 23 22 22 21 21 21 21 22 21 22 22 22 22 22 23 23 24 24 23
29 30 31 32 31 30 31 29 28 28 28 29 28 27 27 27 27 27 26 26 26 25 25 26 26 25 24 24 24 23 23 23 23 23 23 23 23 24 24 25 25 25 25 26
29 29 30 32 34 35 33 32 30 29 28 27 27 28 28 29 28 27 27 27 27 27 26 26 26 26 26 26 26 25 25 25 25 24 24 25 25 26 27 26 27 27 27 27
32 32 32 32 33 34 33 33 32 31 30 30 30 30 30 30 29 29 29 28 28 28 27 27 27 27 27 27 27 27 26 26 26 26 27 27 28 28 29 28 29 29 29 29
34 34 34 35 34 34 35 35 34 33 32 32 32 32 31 31 31 30 30 29 28 29 29 28 28 28 28 28 27 28 28 28 28 29 29 29 29 29 30 30 30 30 30 30
34 35 36 37 37 36 36 35 34 34 34 34 33 33 32 32 32 31 31 30 30 29 29 29 29 29 29 29 29 29 30 31 31 31 31 31 31 31 32 32 32 32 32 32
Wind_Direction
219 220 214 223 237 237 227 217 226 253 275 292 302 298 306 313 325 328 328 334 337 342 343 343 342 342 340 337 336 331 327 314 304 294 279 257 232 230 226 222 222 228 229 229
224 229 226 227 234 235 235 232 243 267 284 295 304 306 306 307 321 324 327 332 335 340 343 342 341 342 340 339 337 334 329 323 303 282 269 251 235 226 233 228 229 233 232 226
226 232 237 234 235 237 236 244 251 251 276 301 317 313 302 300 314 322 323 326 332 337 340 340 340 341 341 342 339 334 332 325 305 266 250 244 237 237 240 237 234 231 230 229
227 231 237 238 237 237 239 251 259 263 277 288 286 295 304 305 315 323 325 324 328 332 335 339 338 339 342 343 341 339 338 333 311 262 246 246 246 249 249 244 236 235 238 243
231 235 239 239 239 239 236 246 257 270 276 277 278 289 301 302 305 317 321 321 322 328 334 336 336 338 339 342 344 343 341 338 335 298 270 260 257 254 258 248 238 238 241 246
231 239 242 242 241 242 242 247 255 273 286 281 274 277 279 283 292 306 312 316 319 325 330 331 333 336 338 341 343 346 345 340 332 305 277 268 268 263 259 250 248 246 247 251
233 238 244 242 241 243 242 244 254 276 291 293 277 271 258 276 287 296 305 314 318 323 328 328 330 334 338 340 339 339 339 340 342 331 305 288 282 277 264 258 260 259 256 256
239 240 245 244 240 240 241 236 233 245 276 293 283 255 267 283 293 301 307 312 317 324 327 329 329 333 337 339 338 338 339 341 340 333 319 305 289 284 275 267 267 265 266 266
233 249 252 247 241 237 238 236 235 245 259 275 277 273 281 288 299 307 311 314 318 323 326 330 332 335 338 338 340 342 342 343 334 320 309 298 289 281 276 274 272 271 275 274
214 229 243 250 244 237 233 234 233 236 246 259 271 267 265 277 293 304 311 313 316 320 323 326 330 333 336 339 340 341 341 338 332 322 312 298 287 278 278 284 284 282 281 276
216 224 231 246 246 241 239 234 233 233 235 246 270 280 274 279 288 300 308 310 314 320 322 324 327 333 335 338 341 340 339 335 332 323 315 308 300 293 289 289 289 287 286 286
221 224 223 239 251 243 240 240 237 236 237 236 252 277 277 280 289 295 299 304 312 317 321 326 328 331 331 332 333 333 335 335 333 327 317 308 301 298 297 294 293 291 289 289
223 223 221 225 244 248 242 240 237 238 240 239 249 266 267 272 278 289 296 298 306 312 315 320 325 327 327 326 326 327 328 329 327 327 320 313 306 301 297 294 294 294 292 291
225 226 221 218 231 250 255 245 238 235 236 244 248 259 273 274 276 284 289 294 298 303 309 313 317 319 321 321 323 324 323 323 322 320 319 314 309 306 301 297 294 296 294 292
225 227 224 217 214 223 249 253 242 237 230 234 250 255 262 265 271 277 284 289 292 297 301 305 307 311 314 315 317 318 318 320 319 318 313 311 310 307 304 300 298 297 295 295
228 228 226 221 218 221 231 240 241 238 235 233 238 251 258 266 266 271 278 284 286 290 294 297 298 302 306 308 311 312 313 315 317 317 314 310 310 308 307 304 302 300 300 299
230 230 229 226 224 228 229 232 234 238 240 238 240 245 257 263 267 270 273 276 280 284 287 291 294 297 300 303 305 305 305 309 311 312 310 309 310 311 311 310 307 305 303 300
231 230 229 226 223 229 232 231 235 233 234 235 238 242 250 258 264 269 269 270 275 279 283 285 289 294 296 299 301 301 300 302 303 307 309 309 308 307 309 310 308 306 306 305
230 229 226 223 224 230 232 231 229 230 231 234 239 245 250 258 263 265 266 267 270 276 279 279 284 289 293 295 296 297 296 298 299 302 307 308 307 305 306 306 305 306 305 304
228 228 225 222 219 222 234 236 230 229 237 240 243 248 252 256 260 265 267 269 271 274 276 278 282 285 289 291 291 292 294 293 295 297 299 303 305 303 301 303 304 305 304 302
228 227 225 223 222 223 229 231 229 229 239 244 247 250 253 257 259 263 266 267 270 274 275 277 279 281 284 285 288 289 291 291 292 293 296 299 300 301 301 302 303 304 303 302
232 230 228 225 225 228 232 235 233 235 240 243 247 252 256 258 260 263 265 268 271 273 275 275 276 277 280 281 283 287 290 290 291 291 292 295 297 299 300 300 301 301 301 301
224 224 224 225 225 227 231 238 239 241 244 247 250 255 257 259 261 263 265 267 269 272 274 275 274 274 276 278 281 283 287 289 290 290 291 293 294 297 298 299 299 300 299 298
223 224 225 229 230 230 233 238 242 245 248 251 254 257 258 261 263 263 264 266 268 270 272 274 275 274 275 277 280 282 285 288 289 288 289 291 293 295 296 296 298 298 298 297
224 224 226 230 234 236 237 240 244 248 253 255 257 258 259 261 262 263 264 265 267 268 270 272 272 273 275 277 278 281 284 286 288 289 289 289 291 294 295 296 297 297 297 298
228 229 230 231 235 237 240 244 247 250 252 254 256 257 258 260 262 263 264 265 266 266 269 271 272 273 274 276 277 279 281 284 287 289 290 290 291 293 294 295 296 297 297 297
Height
5920 5922 5924 5926 5928 5929 5931 5933 5934 5935 5933 5931 5931 5930 5928 5925 5923 5920 5918 5916 5914 5912 5910 5907 5904 5901 5898 5896 5893 5891 5890 5889 5889 5889 5889 5890 5892 5893 5894 5895 5896 5897 5898 5899
5919 5921 5923 5924 5927 5928 5929 5931 5933 5933 5932 5930 5930 5929 5927 5925 5923 5921 5918 5915 5913 5911 5909 5906 5904 5901 5898 5895 5893 5890 5888 5887 5887 5888 5888 5889 5891 5892 5893 5894 5895 5896 5897 5898
5916 5920 5921 5922 5924 5926 5927 5929 5930 5930 5930 5929 5929 5928 5926 5922 5921 5919 5917 5914 5912 5910 5908 5906 5903 5900 5897 5894 5892 5889 5887 5886 5886 5886 5887 5889 5890 5891 5892 5893 5894 5895 5896 5897
5914 5916 5918 5920 5922 5924 5926 5928 5928 5928 5928 5928 5930 5928 5925 5921 5919 5918 5916 5913 5911 5909 5906 5904 5902 5899 5897 5894 5891 5888 5886 5885 5884 5885 5886 5888 5889 5890 5891 5892 5893 5894 5895 5896
5911 5913 5915 5917 5920 5921 5923 5925 5925 5926 5926 5926 5927 5927 5926 5921 5919 5916 5915 5913 5910 5908 5906 5904 5902 5899 5896 5893 5891 5888 5887 5885 5885 5885 5886 5887 5888 5889 5890 5891 5892 5893 5894 5894
5908 5910 5913 5915 5917 5919 5920 5922 5923 5924 5924 5925 5925 5926 5924 5920 5918 5916 5914 5912 5910 5907 5905 5903 5901 5898 5895 5893 5891 5889 5887 5886 5885 5885 5886 5887 5887 5888 5889 5890 5891 5891 5892 5893
5905 5907 5909 5911 5914 5916 5918 5920 5922 5922 5923 5922 5923 5924 5922 5919 5918 5916 5913 5911 5909 5906 5904 5902 5899 5897 5895 5893 5891 5889 5887 5886 5885 5885 5885 5886 5887 5887 5888 5889 5890 5890 5891 5891
5902 5905 5906 5908 5911 5913 5915 5918 5920 5922 5923 5922 5920 5920 5918 5917 5915 5914 5912 5909 5907 5905 5903 5901 5898 5896 5894 5892 5890 5888 5887 5886 5886 5885 5885 5886 5886 5887 5887 5888 5888 5889 5889 5889
5901 5903 5903 5904 5907 5910 5912 5914 5918 5920 5920 5920 5921 5919 5915 5914 5913 5911 5910 5908 5905 5903 5901 5899 5897 5895 5893 5892 5889 5888 5887 5886 5886 5885 5885 5885 5885 5886 5886 5887 5887 5887 5888 5888
5896 5899 5901 5901 5903 5906 5909 5912 5914 5916 5917 5918 5917 5915 5911 5910 5910 5909 5907 5906 5904 5902 5900 5899 5896 5895 5893 5891 5890 5888 5887 5886 5885 5884 5884 5884 5884 5885 5885 5886 5886 5886 5886 5886
5890 5894 5898 5898 5899 5903 5905 5908 5909 5912 5914 5916 5915 5913 5908 5908 5907 5907 5905 5904 5903 5901 5899 5897 5895 5894 5892 5891 5889 5888 5887 5886 5885 5884 5883 5883 5883 5883 5884 5884 5884 5884 5884 5884
5884 5889 5893 5895 5896 5899 5901 5903 5906 5908 5910 5911 5912 5912 5905 5905 5904 5905 5903 5902 5901 5900 5898 5896 5894 5892 5892 5891 5889 5888 5887 5886 5885 5884 5883 5882 5882 5882 5882 5882 5882 5882 5882 5882
5879 5883 5887 5891 5895 5895 5897 5899 5902 5904 5906 5907 5910 5909 5902 5900 5901 5901 5900 5899 5899 5898 5897 5895 5894 5892 5891 5890 5889 5888 5886 5885 5884 5883 5882 5881 5881 5881 5880 5880 5880 5880 5880 5880
5874 5877 5883 5888 5891 5892 5892 5895 5898 5900 5903 5904 5906 5904 5900 5898 5898 5899 5898 5897 5897 5896 5895 5894 5893 5891 5890 5889 5888 5887 5886 5884 5883 5882 5881 5881 5880 5879 5879 5878 5878 5877 5877 5876
5867 5872 5876 5881 5884 5888 5890 5891 5893 5896 5898 5901 5901 5899 5896 5895 5896 5896 5895 5895 5895 5894 5893 5892 5891 5890 5889 5888 5887 5886 5884 5883 5882 5881 5880 5879 5878 5877 5876 5875 5875 5874 5873 5872
5861 5866 5870 5875 5879 5883 5886 5888 5889 5892 5894 5896 5896 5894 5892 5891 5890 5891 5892 5892 5892 5891 5891 5890 5889 5888 5887 5886 5885 5884 5883 5881 5880 5879 5878 5877 5876 5875 5874 5873 5872 5871 5870 5869
5856 5861 5865 5870 5874 5877 5880 5884 5886 5888 5889 5890 5890 5889 5888 5888 5887 5888 5889 5889 5889 5889 5888 5887 5886 5886 5885 5883 5882 5882 5881 5879 5878 5877 5876 5874 5873 5872 5871 5870 5869 5867 5866 5865
5851 5855 5859 5864 5869 5871 5876 5878 5880 5882 5884 5884 5884 5884 5884 5883 5884 5883 5885 5886 5885 5885 5885 5884 5882 5882 5882 5881 5880 5878 5877 5876 5875 5874 5873 5872 5870 5869 5868 5867 5865 5864 5863 5862
5844 5849 5854 5859 5863 5866 5870 5872 5874 5876 5876 5877 5877 5878 5879 5878 5879 5879 5880 5880 5881 5881 5881 5880 5880 5879 5879 5878 5877 5875 5874 5873 5872 5871 5870 5869 5867 5866 5865 5863 5862 5861 5859 5858
5838 5843 5848 5852 5857 5861 5863 5864 5866 5869 5869 5870 5871 5872 5873 5874 5874 5874 5875 5875 5876 5876 5876 5875 5875 5875 5875 5874 5873 5872 5871 5870 5869 5868 5867 5865 5864 5862 5861 5860 5858 5857 5855 5854
5833 5836 5841 5846 5849 5853 5854 5855 5858 5862 5862 5863 5865 5866 5867 5868 5869 5870 5870 5870 5871 5872 5872 5871 5871 5871 5870 5869 5869 5868 5867 5866 5865 5864 5862 5861 5859 5858 5857 5855 5854 5852 5851 5849
5827 5831 5835 5839 5843 5847 5846 5848 5850 5852 5854 5856 5859 5860 5861 5862 5863 5864 5865 5866 5866 5866 5866 5866 5866 5866 5865 5864 5864 5863 5862 5861 5860 5859 5858 5856 5855 5853 5852 5850 5849 5847 5845 5844
5820 5825 5828 5832 5835 5837 5840 5842 5844 5846 5848 5850 5852 5854 5856 5856 5856 5858 5859 5860 5860 5860 5860 5860 5860 5860 5859 5859 5858 5857 5857 5856 5855 5853 5852 5851 5849 5848 5846 5845 5843 5841 5840 5838
5813 5817 5821 5824 5826 5829 5832 5835 5838 5840 5843 5845 5847 5848 5849 5850 5851 5852 5853 5854 5854 5854 5854 5854 5854 5854 5853 5853 5852 5851 5851 5850 5848 5847 5846 5845 5843 5842 5840 5839 5837 5835 5833 5831
5804 5809 5814 5817 5819 5822 5825 5828 5831 5834 5836 5838 5840 5841 5842 5844 5844 5845 5846 5846 5847 5847 5847 5847 5847 5847 5847 5846 5846 5845 5844 5843 5842 5841 5839 5838 5836 5835 5833 5832 5830 5828 5826 5824
5798 5802 5806 5809 5812 5814 5817 5821 5824 5827 5829 5830 5832 5834 5835 5836 5837 5838 5838 5839 5839 5839 5840 5840 5840 5840 5840 5839 5839 5838 5837 5836 5835 5834 5832 5831 5829 5828 5826 5824 5822 5820 5819 5816